COSMOS 1275 DEB, 42184

Orbit data source: Space-Track

COSMOS 1275 DEB, 42184 is space debris in LEO originally from a launch on Thu, 04 Jun 1981 UTC launched from the Plesetsk Missile And Space Complex (PKMTR). Debris objects in space refer to the collection of defunct objects orbiting the Earth. Examples of debris include non-operational satellites, rocket bodies, and fragments generated from explosions, collisions, or faulty payload assembly.

Loading next visibility...
Identifier
42184, 1981-053SY
Orbit
LEO
Country
Flag of CISCIS
Related business
Manufacturer
Unknown
Mission
Spacecraft
Bus & Motor
Unknown
Mass
Unknown
Launch date (UTC)
1981-06-04 (44 years ago)
Launch vehicle
Unknown
Launch site
Plesetsk Missile And Space Complex (PKMTR)
Object type
Payload
Rocket body
Debris
Shape & HBR
Unknown shape, 0.1 m
Radar Cross Section
Small (<0.1 m²)

Expand to show TLE details & history
Last TLE update: 1 week ago

TLE from 1 week ago
0 COSMOS 1275 DEB
1 42184U 81053SY  25295.48284703  .00000313  00000-0  37408-3 0  9997
2 42184  83.0186 118.3425 0096208  31.6114 357.2855 13.62250761579191
Epoch: 2025-10-22T11:35Z
TLE epoch observation values (Epoch: 2025-10-22T11:35:17.983Z)
Latitude
28.6551°
Longitude
-82.82134°
Altitude
959.868 km
Speed
7.41 km/s
True Right ascension
08h 08m 38s
True Declination
28° 30' 53"
Sunlit
Object was in daylight at epoch
Visualization orbit readout
Latitude
Unknown
Longitude
Unknown
Altitude
Unknown
Speed
Unknown
Apparent Right ascension
Unknown
Apparent Declination
Unknown
Sunlit
N/A
Visualization observer readout
Local Sidereal Time
02:22:31
Azimuth
Unknown
Elevation
Unknown
Doppler factor
Unknown
Orbital elements
Apogee altitude
1,095.908 km
Perigee altitude
953.466 km
Semi-major axis
7,402.824 km
Eccentricity
0.00962
Inclination
83.0186°
RAAN
118.3425°
Arg. of periapsis
31.6114°
True anomaly
357.23265°
Mean anomaly
357.2855°
Eccentric anomaly
357.25914°
Mean motion
3.40759 °/min
Orbital period
105.65 mins
BSTAR
0.00037408
Loading maneuver chart data...
Computing Atmospheric mass density...
Loading historical data...
Loading historical data...
Loading historical data...
Loading historical data...
Loading historical data...
Loading historical data...
Loading historical data...

Documentation

Showing up to 5 results
|